Regional Weather Roundup
Issued by NWS Austin/San Antonio, TX

Home | Current Version | Previous Version | Graphics & Text | Print | Product List | Glossary On
Versions: 1 2 3 4 5 6 7 8 9 10 11 12 13 14 15 16 17 18 19 20 21 22 23 24 25 26 27 28 29 30 31 32 33 34 35 36 37 38 39 40 41 42 43 44 45 46 47 48 49 50
000
ASUS44 KEWX 250110
RWREWX
SOUTH TEXAS REGIONAL WEATHER ROUNDUP
NATIONAL WEATHER SERVICE AUSTIN/SAN ANTONIO TX
800 PM CDT SUN JUN 24 2018

NOTE: "FAIR" INDICATED FEW OR NO CLOUDS BELOW 12,000 FEET WITH NO
SIGNIFICANT WEATHER AND/OR OBSTRUCTIONS TO VISIBILITY.

* - THESE STATIONS ARE NOT NWS OR FAA STATIONS...AND ARE NOT SUBJECT
    TO NWS AND FAA QUALITY CONTROL.

TXZ171-172-183>190-250200-
TEXAS HILL COUNTRY AND EDWARDS PLATEAU

CITY           SKY/WX    TMP DP  RH WIND       PRES   REMARKS
JUNCTION       CLEAR     94  64  37 SE15      29.82R HX  95
*LLANO         CLEAR     93  66  40 SE12G25   29.84R HX  96
BURNET         CLEAR     90  68  48 SE14G23   29.85R HX  94
*HORSESHOE BAY CLEAR     91  66  44 SE10G21   29.82R HX  93
*KERRVILLE     CLEAR     92  68  46 SE14      29.84R HX  96
*FREDERICKSBRG CLEAR     88  63  42 S10G20    29.85R
*ROCKSPRINGS   CLEAR     90  61  37 SE18G32   29.89R
*BOERNE STAGE  CLEAR     86  66  51 SE16      29.86R
*CASTROVILLE   CLEAR     91  65  42 SE18      29.83R HX  92
HONDO          CLEAR     93  71  48 SE18G29   29.81R HX 100
*UVALDE        CLEAR     93  67  41 SE16G25   29.79R HX  96
DEL RIO        PTCLDY    99  57  24 SE16G23   29.71R HX  98
LAUGHLIN AFB   PTCLDY    98  58  26 SE22G30   29.72R HX  98
CARRIZO SPRGS  CLEAR     97  66  36 SE13G21   29.74R HX 100
*EAGLE PASS    CLEAR     99  59  26 SE16G25   29.74R HX  98
*FAITH RANCH   CLEAR     97  64  34 SE14G26   29.75R HX  99
$$

TXZ173-191>194-202-209-217>225-228-250200-
CENTRAL AND SOUTH CENTRAL TEXAS

CITY           SKY/WX    TMP DP  RH WIND       PRES   REMARKS
GEORGETOWN     CLEAR     90  72  55 SE10G24   29.85R HX  97
AUSTIN/BERGSTM PTCLDY    91  68  46 SE16G26   29.82R HX  95
AUSTIN/MABRY   CLEAR     91  68  46 SE12G24   29.83R HX  95
*AUSTIN/EXEC   CLEAR     88  72  58 SE15G23   29.84R HX  94
*LAGO VISTA    CLEAR     89  69  50 SE9G21    29.85R HX  93
SAN MARCOS     CLEAR     88  73  61 SE18      29.84R HX  95
NEW BRAUNFELS  CLEAR     89  69  51 S14       29.83R HX  93
RANDOLPH AFB   PTCLDY    89  71  55 SE17G24   29.84R HX  94
PT SAN ANTONIO CLEAR     90  69  49 SE20      29.81R HX  95
SAN ANTONIO    MOCLDY    89  69  51 SE18      29.83S HX  93
STINSON FIELD  PTCLDY    91  72  53 SE17      29.81R HX  98
*LA GRANGE     PTCLDY    87  75  66 SE9       29.85R HX  97
*GIDDINGS      CLEAR     87  73  62 S8G16     29.87R HX  93
*GONZALES      MOCLDY    87  74  63 SE13G18   29.84S HX  95
$$

TXZ163>164-176>182-195>201-210>213-226-227-235-250200-
SOUTHEAST TEXAS

CITY           SKY/WX    TMP DP  RH WIND       PRES   REMARKS
COLLEGE STN    CLEAR     88  74  63 SE17      29.87R HX  96
*BRYAN         CLEAR     87  72  61 SE14      29.88R HX  93
*CALDWELL      PTCLDY    87  74  66 SE14      29.87R HX  95
*CROCKETT      CLEAR     86  73  66 SE5       29.93R HX  93
*BRENHAM       PTCLDY    88  73  61 SE10      29.88R HX  96
HUNTSVILLE     PTCLDY    88  73  61 VRB7G17   29.89R HX  95
CONROE         CLEAR     87  76  69 SE12      29.91R HX  97
HOUSTON BUSH   FAIR      87  71  58 S14G24    29.90R HX  93
HOUSTON HOBBY  FAIR      84  75  74 SE16      29.89S HX  92
*HOUSTON SW AP FAIR      83  75  77 S8G20     29.90S
PEARLAND       FAIR      85  76  74 SE13      29.91S HX  94
HOUSTON HOOKS  FAIR      87  72  60 SE12      29.90R HX  93
ELLINGTON FLD  PTCLDY    84  73  70 S14       29.92S HX  91
SUGAR LAND     FAIR      87  73  62 SE17      29.88S HX  94
*HOUSTON EXEC    N/A    N/A N/A N/A MISG        N/A
*CLEVELAND MUN FAIR      84  72  67 S8        29.93R
*WHARTON       CLOUDY    83  73  71 SE8       29.89R
*COLUMBUS      FAIR      85  73  68 SE10      29.88R HX  91
*EAGLE LAKE    CLEAR     85  77  76 S8        29.87S HX  96
$$

TXZ214>216-236>238-250200-
THE UPPER TEXAS COAST

CITY           SKY/WX    TMP DP  RH WIND       PRES   REMARKS
*ORANGE        FAIR      84  78  83 S3        29.96R HX  95
PORT ARTHUR    FAIR      84  75  74 S15       29.93R HX  92
GALVESTON      FAIR      84  76  76 S18       29.92S HX  93
ANGLETON       FAIR      84  74  71 S13       29.90R HX  91
*BAY CITY      CLOUDY    84  75  75 SE12      29.88S HX  91
PALACIOS       CLOUDY    84  78  82 SE17      29.86S HX  95
$$

TXZ229>234-239>247-250200-
TEXAS COASTAL BEND AND RIO GRANDE PLAINS

CITY           SKY/WX    TMP DP  RH WIND       PRES   REMARKS
VICTORIA       CLOUDY    85  73  67 SE13      29.85F HX  91
*BEEVILLE      CLOUDY    84  74  70 SE12      29.84S HX  91
ROCKPORT       CLOUDY    83  77  82 SE17G26   29.83S HX  92
*PORT ARANSAS  CLOUDY    83  77  82 SE15      29.84F HX  92
*PORT LAVACA   CLOUDY    83  75  75 SE16      29.86S HX  90
*INGLESIDE     CLOUDY    84  76  77 S13       29.83F HX  93
CORPUS CHRISTI CLOUDY    82  79  90 SE15      29.83S HX  92
CORPUS NAS     CLOUDY    85  78  80 SE15      29.83S HX  96
*ROBSTOWN      CLOUDY    82  75  79 SE13      29.83S
ALICE          CLOUDY    83  73  72 SE14      29.81S
KINGSVILLE NAS CLOUDY    84  75  74 SE17      29.82S HX  92
COTULLA        PTCLDY    93  72  50 SE14G24   29.78R HX 101
LAREDO         PTCLDY    95  70  44 SE21G28   29.77R HX 101
$$

TXZ248>255-250200-
DEEP SOUTH TEXAS

CITY           SKY/WX    TMP DP  RH WIND       PRES   REMARKS
BROWNSVILLE    FAIR      84  73  69 SE14      29.83R HX  90
PORT ISABEL    FAIR      83  72  69 SE15      29.82S
*SOUTH PADRE   NOT AVBL
HARLINGEN      PTCLDY    84  75  74 SE14      29.81R HX  92
*HEBBRONVILLE  MOCLDY    87  70  55 SE12G22   29.82R HX  92
MCALLEN        PTCLDY    87  76  69 SE13G23   29.80S HX  97
*WESLACO       NOT AVBL
FALFURRIAS     CLOUDY    85  74  67 E8G20     29.81R HX  93
EDINBURG       FAIR      88  73  61 SE15      29.80R HX  95
*ZAPATA        FAIR      91  71  51 SE16G22   29.77R HX  96
$$

TXZ213>215-236>238-242>244-246-247-251-254-255-250200-
CMAN STATIONS

STATION/POSITION TIME  TEMP    WIND        PRES    WAVE
                       AIR SEA DIR/SP/G            HT/PER
                 (UTC) (F)     (DEG/KT/KT) (MB)    (FT/S)
SABINE PASS      0042   84 90  180/  7/ 12 1015.4
SEA RIM ST PARK  0000   84     180/ 11/ 13 1013.8
NORTH JETTY/GLS  0042   83 86  170/ 18/ 22 1012.4
EAGLE POINT      0042   84 86  180/ 17/ 20 1012.6
MORGANS POINT    0042   85 85  150/  9/ 15 1012.6
MISSION/ARANSAS  0000          120/  8     1011.0
PORT O`CONNOR    0042   82 86  130/ 18/ 21 1010.8
PORT ARANSAS     0000   83 86  130/ 20/ 22 1010.2
MALAQUITE BEACH  0042   83 85  110/ 17/ 20 1009.7
BAFFIN BAY       0042   82 88  110/ 17/ 20 1010.3
PORT ISABEL      0042   82 86  130/ 11/ 14 1010.3
$$




USA.gov is the U.S. government's official web portal to all federal, state and local government web resources and services.